Other Surface Observations
Issued by NWS Charleston, SC

Home | Current Version | Previous Version | Text Only | Print | Product List | Glossary On
Versions: 1 2 3 4 5 6 7 8 9 10 11 12 13 14 15 16 17 18 19 20 21 22 23 24 25 26 27 28 29 30 31 32 33 34 35 36 37 38 39 40 41 42 43 44 45 46 47 48 49 50
000
SXUS52 KCHS 301825
OSOCHS

MARINE OBSERVATIONS
NATIONAL WEATHER SERVICE CHARLESTON SC
200 PM EDT TUE SEP 30 2014

...DOWNTOWN CHARLESTON AND HARBOR...

CITY           SKY/WX    TMP DP  RH WIND       PRES   REMARKS
WATERFRONT PRK   N/A     75 N/A N/A N9          N/A
FORT JOHNSON   NOT AVBL

...LAKE MOULTRIE...

CITY           SKY/WX    TMP DP  RH WIND       PRES   REMARKS
PINOPOLIS        N/A     75  63  64 N5        29.81F

...LAKE AND SUPPLEMENTAL COASTAL OBSERVATIONS...

STATION/POSITION TIME  TEMP    WIND        PRES    WAVE   SWELL
                       AIR SEA DIR/SP/G            HT/PER HT/PER/DIR
                 (UTC) (F)     (DEG/KT/KT) (MB)    (FT/S) (FT/S/D)
FORT PULASKI     1800   74      40/  8/ 11 1011.8F
SAPELO ISLAND    NOT AVBL
UPR LAKE MARION  NOT AVBL
WINYAH BAY       1700   73      70/  8     1012.0S
LAKE MURRAY      1800   75     200/  5/  6 1011.5F
ACE BASIN NERRS  1700   78      10/  3     1013.0S


...C-MAN AND BUOY OBSERVATIONS...

STATION/POSITION TIME  TEMP    WIND        PRES    WAVE   SWELL
                       AIR SEA DIR/SP/G            HT/PER HT/PER/DIR
                 (UTC) (F)     (DEG/KT/KT) (MB)    (FT/S) (FT/S/D)
BUOY 41004       1800   75 81   20/ 16/ 19 1009.8F   4/ 6   2/14
BUOY 41008       1800   73 79   10/ 14/ 17 1011.1F   4/ 6   2/110/ 8
FOLLY BEACH CMAN 1800   75      60/  8/  9 1011.7F
CAPERS NS BUOY   1700   74      40/ 10/ 12   N/A
FRIPP NS BUOY    NOT AVBL
5E ST. MARYS GA  1800      79                N/A     4/ 5
FRYING PAN BUOY  NOT AVBL
BUOY 41025       1700   74     360/ 17/ 21 1010.6F   3/ 8   2/ 70/ 8
CAPE LOOKOUT NC  1800   74      40/ 14/ 16 1010.6F
BUOY 41002       1659   75 80  150/ 12/ 14 1008.6F   3/ 7   3/ 60/ 7
BUOY 41010       1800   82 84  280/ 17/ 21 1009.1F   4/ 5   2/ 80/ 9
BUOY 41012       NOT AVBL
ST AUGUSTINE FL  1800   74     340/ 11/ 13 1011.1F


$$



USA.gov is the U.S. government's official web portal to all federal, state and local government web resources and services.